Hourly Data Report for March 20, 2005

TORONTO CITY
ONTARIO

43°40'00.000" N
79°24'00.000" W
112.50 m
6158355
71508
XTO

Download Data

Hourly Data (March 2005)
Hourly Data Report for March 20, 2005
TIME
LST
Temp Definition
°C
Dew Point Definition
°C
Rel Hum Definition
%
Precip. Amount Definition
mm

Wind Dir Definition
10's deg

Wind Spd Definition
km/h
Visibility Definition
km
Stn Press Definition
kPa
Hmdx Definition


Wind Chill Definition


Weather Definition


00:00 2.2 -4.4 62   LegendMM LegendMM   100.32     LegendNANA
01:00 2.1 -4.0 64   LegendMM LegendMM   100.24     LegendNANA
02:00 1.7 -3.6 68   LegendMM LegendMM   100.21     LegendNANA
03:00 1.9 -4.8 61   LegendMM LegendMM   100.16     LegendNANA
04:00 1.7 -4.5 63   LegendMM LegendMM   100.14     LegendNANA
05:00 1.6 -4.0 66   LegendMM LegendMM   100.17     LegendNANA
06:00 0.6 -2.8 78   LegendMM LegendMM   100.20     LegendNANA
07:00 1.0 -4.1 69   LegendMM LegendMM   100.21     LegendNANA
08:00 1.7 -5.1 61   LegendMM LegendMM   100.21     LegendNANA
09:00 1.9 -4.5 62   LegendMM LegendMM   100.23     LegendNANA
10:00 1.2 -4.3 67   LegendMM LegendMM   100.25     LegendNANA
11:00 1.2 -3.8 69   LegendMM LegendMM   100.26     LegendNANA
12:00 0.9 -2.3 79   LegendMM LegendMM   100.25     LegendNANA
13:00 0.9 -1.9 82   LegendMM LegendMM   100.21     LegendNANA
14:00 2.2 -3.0 68   LegendMM LegendMM   100.16     LegendNANA
15:00 2.2 -2.2 73   LegendMM LegendMM   100.18     LegendNANA
16:00 1.8 -1.4 79   LegendMM LegendMM   100.19     LegendNANA
17:00 2.0 -1.2 79   LegendMM LegendMM   100.21     LegendNANA
18:00 1.8 -0.6 84   LegendMM LegendMM   100.26     LegendNANA
19:00 1.3 -0.1 90   LegendMM LegendMM   100.29     LegendNANA
20:00 1.1 0.1 93   LegendMM LegendMM   100.32     LegendNANA
21:00 1.2 0.3 94   LegendMM LegendMM   100.33     LegendNANA
22:00 0.9 0.3 96   LegendMM LegendMM   100.33     LegendNANA
23:00 0.9 0.4 96   LegendMM LegendMM   100.33     LegendNANA

Notes on Data Quality.

Legend

  • E = Estimated
  • M = Missing
  • NA = Not Available*
  • [empty] = Indicates an unobserved value
Date modified: